AI7R Weather Reports


time (UTC)temp
F
wind
direction
speed
knots
gust
knots
rain 1hr
in
rain 24hr
in
rain mn
in
humidity
%
barometer
mb
20260905011506 76 360 2.6 7.0 0.00 0.00 0.00 41 1013.6
20260905010011 76 360 1.7 6.1 0.00 0.00 0.00 41 1013.5
20260905003007 78 360 1.7 6.1 0.00 0.00 0.00 38 1013.5
20260905001507 78 360 2.6 10.4 0.00 0.00 0.00 40 1013.6
20260905000009 78 360 2.6 8.7 0.00 0.00 0.00 40 1013.5
20260904234506 78 360 2.6 10.4 0.00 0.00 0.00 38 1013.5
20260904233006 80 360 2.6 10.4 0.00 0.00 0.00 37 1013.6
20260904231505 81 360 2.6 10.4 0.00 0.00 0.00 35 1013.4
20260904230009 81 360 1.7 7.8 0.00 0.00 0.00 34 1013.6
20260904224506 81 360 2.6 8.7 0.00 0.00 0.00 34 1013.6
20260904223006 81 360 1.7 8.7 0.00 0.00 0.00 34 1013.8
20260904221506 81 360 3.5 13.0 0.00 0.00 0.00 36 1013.9
20260904220009 78 360 2.6 8.7 0.00 0.00 0.00 40 1013.9
20260904213005 79 360 2.6 8.7 0.00 0.00 0.00 41 1014.1
20260904211505 79 360 2.6 7.8 0.00 0.00 0.00 41 1014.2
20260904210009 78 360 2.6 8.7 0.00 0.00 0.00 42 1014.5
20260904204505 78 360 0.9 6.1 0.00 0.00 0.00 43 1014.5
20260904203006 78 360 1.7 7.8 0.00 0.00 0.00 43 1014.6
20260904200009 78 360 0.9 7.0 0.00 0.00 0.00 42 1015.0
20260904194505 78 360 2.6 10.4 0.00 0.00 0.00 43 1015.1
20260904193005 79 360 2.6 12.2 0.00 0.00 0.00 42 1015.2
20260904191505 80 360 3.5 10.4 0.00 0.00 0.00 41 1015.3
20260904190009 78 360 3.5 10.4 0.00 0.00 0.00 41 1015.5
20260904183005 78 360 2.6 9.6 0.00 0.00 0.00 46 1015.8
20260904181505 77 360 2.6 11.3 0.00 0.00 0.00 47 1015.9
20260904180008 75 175 2.6 8.7 0.00 0.00 0.00 52 1016.0
20260904174505 73 360 1.7 8.7 0.00 0.00 0.00 58 1016.1
20260904173005 72 360 1.7 7.0 0.00 0.00 0.00 58 1016.1
20260904170008 70 360 0.9 3.5 0.00 0.00 0.00 66 1016.1
20260904164505 70 360 0.9 5.2 0.00 0.00 0.00 67 1016.0
20260904163005 71 360 0.9 3.5 0.00 0.00 0.00 69 1015.9
20260904161508 70 269 0.9 4.3 0.00 0.00 0.00 71 1015.7
20260904160008 70 204 2.6 6.1 0.00 0.00 0.00 69 1015.6
20260904154505 68 360 1.7 6.1 0.00 0.00 0.00 76 1015.5
20260904151505 66 360 0.0 4.3 0.00 0.00 0.00 85 1015.4
20260904150009 65 360 0.0 1.7 0.00 0.00 0.00 87 1015.3
20260904143005 64 113 0.0 0.0 0.00 0.00 0.00 89 1015.2
20260904141505 63 113 0.0 0.0 0.00 0.00 0.00 90 1015.0
20260904134505 62 107 0.0 1.7 0.00 0.00 0.00 91 1014.6
20260904133005 61 360 0.0 3.5 0.00 0.00 0.00 92 1014.3
20260904131505 61 360 0.0 0.9 0.00 0.00 0.00 91 1014.1
20260904130008 61 360 0.0 0.0 0.00 0.00 0.00 89 1013.9
20260904124505 61 360 0.0 0.0 0.00 0.00 0.00 89 1013.8
20260904123005 61 360 0.0 0.0 0.00 0.00 0.00 88 1013.6
20260904121505 61 360 0.0 0.9 0.00 0.00 0.00 88 1013.6
20260904120008 61 180 0.0 0.0 0.00 0.00 0.00 88 1013.6
20260904114505 62 180 0.0 0.0 0.00 0.00 0.00 87 1013.5
20260904113005 62 360 0.0 0.0 0.00 0.00 0.00 86 1013.6
20260904111505 63 206 0.0 0.0 0.00 0.00 0.00 84 1013.5
20260904104505 64 206 0.0 0.0 0.00 0.00 0.00 82 1013.4
20260904101505 64 206 0.0 0.9 0.00 0.00 0.00 80 1013.2
20260904094504 64 360 0.0 2.6 0.00 0.00 0.00 79 1013.0
20260904091505 65 132 0.0 0.0 0.00 0.00 0.00 78 1013.0
20260904084505 65 130 0.0 2.6 0.00 0.00 0.00 76 1013.0
20260904083005 65 12 0.0 0.0 0.00 0.00 0.00 76 1013.2
20260904080008 65 12 0.0 0.0 0.00 0.00 0.00 73 1013.2
20260904074505 65 12 0.0 0.9 0.00 0.00 0.00 75 1013.2
20260904073006 64 360 0.9 4.3 0.00 0.00 0.00 75 1013.1
20260904070010 66 360 0.9 6.1 0.00 0.00 0.00 68 1013.5
20260904064504 68 360 0.9 3.5 0.00 0.00 0.00 60 1013.2
20260904063004 68 360 0.0 0.0 0.00 0.00 0.00 59 1013.0
20260904061504 69 360 0.0 1.7 0.00 0.00 0.00 57 1013.0
20260904060007 69 360 0.0 3.5 0.00 0.00 0.00 57 1013.1
20260904053004 69 360 0.0 0.0 0.00 0.00 0.00 59 1013.0
20260904051504 69 360 0.0 0.0 0.00 0.00 0.00 61 1013.0
20260904050007 69 360 0.0 0.0 0.00 0.00 0.00 59 1013.2
20260904044504 69 360 0.0 0.0 0.00 0.00 0.00 56 1013.2
20260904043004 68 360 0.0 0.9 0.00 0.00 0.00 57 1013.3
20260904041504 67 360 0.0 3.5 0.00 0.00 0.00 59 1013.3
20260904040007 67 360 0.0 0.9 0.00 0.00 0.00 57 1013.2
20260904034504 68 360 0.0 0.0 0.00 0.00 0.00 56 1013.1
20260904033004 68 360 0.0 0.0 0.00 0.00 0.00 55 1013.0
20260904031504 69 360 0.0 0.0 0.00 0.00 0.00 53 1012.9
20260904030007 69 360 0.0 0.0 0.00 0.00 0.00 53 1012.7
20260904024504 69 360 0.0 0.0 0.00 0.00 0.00 52 1012.6
20260904023004 70 360 0.0 0.0 0.00 0.00 0.00 51 1012.5
20260904021504 71 360 0.0 0.0 0.00 0.00 0.00 50 1012.3
20260904020007 72 360 0.0 0.9 0.00 0.00 0.00 48 1012.2
20260904013004 74 360 0.9 6.1 0.00 0.00 0.00 45 1012.3